Weather History for KBMG - July, 2012

Change the Weather History Date:

Saturday, July 28, 2012

  Actual Average Record
Temperature  
Mean Temperature 76 °F 74 °F  
Max Temperature 87 °F 84 °F 94 °F (2011)
Min Temperature 64 °F 63 °F 49 °F (2013)
Degree Days  
Heating Degree Days 0 0  
Month to date heating degree days 0 0  
Since 1 June heating degree days 22 15  
Since 1 July heating degree days 0 0  
Cooling Degree Days 11 9  
Month to date cooling degree days 480 252  
Year to date cooling degree days 929 542  
Since 1 June cooling degree days 728 460  
Growing Degree Days 26 (Base 50)    
Moisture  
Dew Point 61 °F    
Average Humidity 65    
Maximum Humidity 93    
Minimum Humidity 37    
Precipitation  
Precipitation 0.00 in 0.09 in 0.82 in (2003)
Month to date precipitation 1.46 4.60  
Year to date precipitation 13.41 29.38  
Sea Level Pressure  
Sea Level Pressure 30.03 in    
Wind  
Wind Speed 5 mph (North)    
Max Wind Speed 15 mph    
Max Gust Speed 18 mph    
Visibility 10 miles    
Events      
T = Trace of Precipitation, MM = Missing Value Source: NWS Daily Summary

Daily Weather History Graph

Daily Weather History Graph

Search for Another Location

Airport or City:

Trip Planner

Search our weather history database for the weather conditions in past years. The results will help you decide how hot, cold, wet, or windy it might be!

Date:

Astronomy

Jul. 28, 2012 Rise Set
Actual Time 6:43 AM EDT 9:01 PM EDT
Civil Twilight 6:13 AM EDT 9:31 PM EDT
Nautical Twilight 5:36 AM EDT 10:08 PM EDT
Astronomical Twilight 4:55 AM EDT 10:49 PM EDT
Moon 5:05 PM EDT (7/28) 2:03 AM EDT (7/28)
Length of Visible Light 15h 18m
Length of Day
14h 17m
Waxing Gibbous, 75% of the Moon is Illuminated
Jul 28
Waxing Gibbous
Aug 1
Full
Aug 9
Last Quarter
Aug 17
New
Aug 24
First Quarter

Hourly Weather History & Observations

Time (EDT) Temp. Heat Index Dew Point Humidity Pressure Visibility Wind Dir Wind Speed Gust Speed Precip Events Conditions
1:53 AM 66.9 °F - 62.1 °F 84% 29.95 in 10.0 mi Calm Calm - N/A   Clear
2:53 AM 66.9 °F - 60.1 °F 79% 29.95 in 10.0 mi Calm Calm - N/A   Clear
3:53 AM 68.0 °F - 60.1 °F 76% 29.95 in 10.0 mi Calm Calm - N/A   Clear
4:53 AM 66.9 °F - 60.1 °F 79% 29.98 in 10.0 mi Calm Calm - N/A   Clear
5:53 AM 66.0 °F - 61.0 °F 84% 29.99 in 10.0 mi Calm Calm - N/A   Clear
6:53 AM 64.9 °F - 62.1 °F 90% 30.00 in 10.0 mi Calm Calm - N/A   Clear
7:53 AM 68.0 °F - 64.0 °F 87% 30.01 in 10.0 mi North 3.5 mph - N/A   Clear
8:53 AM 71.1 °F - 64.9 °F 81% 30.04 in 10.0 mi North 9.2 mph - N/A   Clear
9:53 AM 75.0 °F - 64.0 °F 69% 30.04 in 10.0 mi North 10.4 mph - N/A   Clear
10:53 AM 78.1 °F - 62.1 °F 58% 30.04 in 10.0 mi North 9.2 mph - N/A   Partly Cloudy
11:53 AM 81.0 °F 81.9 °F 62.1 °F 52% 30.06 in 10.0 mi North 10.4 mph - N/A   Scattered Clouds
12:53 PM 81.0 °F 81.9 °F 62.1 °F 52% 30.06 in 10.0 mi NNW 5.8 mph - N/A   Mostly Cloudy
1:53 PM 82.0 °F 82.7 °F 61.0 °F 49% 30.06 in 10.0 mi Variable 6.9 mph - N/A   Mostly Cloudy
2:53 PM 84.9 °F 84.2 °F 57.9 °F 40% 30.06 in 10.0 mi North 4.6 mph - N/A   Mostly Cloudy
3:53 PM 86.0 °F 85.4 °F 59.0 °F 40% 30.05 in 10.0 mi NW 8.1 mph 16.1 mph N/A   Scattered Clouds
4:53 PM 87.1 °F 86.5 °F 59.0 °F 39% 30.05 in 10.0 mi Variable 6.9 mph - N/A   Scattered Clouds
5:53 PM 86.0 °F 85.0 °F 57.9 °F 38% 30.05 in 10.0 mi North 6.9 mph - N/A   Partly Cloudy
6:53 PM 84.0 °F 83.5 °F 57.9 °F 41% 30.05 in 10.0 mi North 8.1 mph - N/A   Clear
7:53 PM 82.0 °F 82.1 °F 59.0 °F 45% 30.05 in 10.0 mi NNE 11.5 mph - N/A   Clear
8:53 PM 78.1 °F - 59.0 °F 52% 30.05 in 10.0 mi North 4.6 mph - N/A   Clear
9:53 PM 75.9 °F - 59.0 °F 56% 30.05 in 10.0 mi NE 5.8 mph - N/A   Clear
10:53 PM 69.1 °F - 62.1 °F 78% 30.06 in 10.0 mi Calm Calm - N/A   Clear
11:53 PM 68.0 °F - 61.0 °F 78% 30.06 in 10.0 mi East 3.5 mph - N/A   Clear